DW2485 Weather Reports


Display with metric or nautical units.
time (UTC)temp
F
wind
direction
speed
MPH
gust
MPH
rain 1hr
in
rain 24hr
in
rain mn
in
humidity
%
barometer
mb
20260905062004 76 60 1.0 2.0 0.00 0.00 0.00 93 1015.0
20260905061503 76 61 2.0 6.0 0.00 0.00 0.00 93 1015.0
20260905060504 75 15 3.0 3.0 0.00 0.00 0.00 92 1015.0
20260905054503 76 131 0.0 2.0 0.00 0.00 0.00 91 1014.8
20260905053504 76 131 0.0 0.0 0.00 0.00 0.00 92 1014.7
20260905052503 76 131 0.0 0.0 0.00 0.00 0.00 91 1014.5
20260905051503 77 131 1.0 2.0 0.00 0.00 0.00 90 1014.5
20260905051004 77 131 1.0 2.0 0.00 0.00 0.00 89 1014.5
20260905050503 77 67 1.0 3.0 0.00 0.00 0.00 89 1014.6
20260905045504 78 92 2.0 3.0 0.00 0.00 0.00 88 1014.7
20260905044504 78 83 2.0 5.0 0.00 0.00 0.00 87 1014.8
20260905044004 79 80 3.0 7.0 0.00 0.00 0.00 87 1014.8
20260905043503 78 49 6.0 9.0 0.00 0.00 0.00 87 1014.8
20260905043005 78 62 5.0 7.0 0.00 0.00 0.00 88 1014.7
20260905042005 78 55 5.0 7.0 0.00 0.00 0.00 88 1014.6
20260905041506 78 71 3.0 5.0 0.00 0.00 0.00 88 1014.6
20260905041006 78 76 3.0 3.0 0.00 0.00 0.00 89 1014.5
20260905040506 78 93 3.0 3.0 0.00 0.00 0.00 88 1014.6
20260905040005 78 88 3.0 3.0 0.00 0.00 0.00 89 1014.7
20260905035005 78 94 2.0 2.0 0.00 0.00 0.00 88 1014.6
20260905034505 78 94 1.0 2.0 0.00 0.00 0.00 88 1014.6
20260905033006 78 86 4.0 6.0 0.00 0.00 0.00 88 1014.5
20260905032505 78 88 3.0 3.0 0.00 0.00 0.00 88 1014.5
20260905031505 78 83 3.0 3.0 0.00 0.00 0.00 88 1014.4
20260905031005 78 72 3.0 3.0 0.00 0.00 0.00 88 1014.4
20260905025506 79 59 2.0 2.0 0.00 0.00 0.00 86 1014.2
20260905025006 79 0 1.0 2.0 0.00 0.00 0.00 86 1014.2
20260905024006 79 13 3.0 7.0 0.00 0.00 0.00 85 1014.0
20260905023505 79 15 5.0 8.0 0.00 0.00 0.00 85 1014.0
20260905022505 80 3 4.0 5.0 0.00 0.00 0.00 85 1013.8
20260905020006 81 218 3.0 6.0 0.00 0.00 0.00 82 1013.0
20260905015505 81 202 4.0 8.0 0.00 0.00 0.00 83 1012.9
20260905015005 81 204 3.0 6.0 0.00 0.00 0.00 83 1012.9
20260905014005 81 207 3.0 7.0 0.00 0.00 0.00 84 1012.9
20260905012006 82 200 3.0 3.0 0.00 0.00 0.00 84 1013.0
20260905011505 82 201 3.0 3.0 0.00 0.00 0.00 82 1013.1
20260905011005 82 249 2.0 2.0 0.00 0.00 0.00 84 1013.4
20260905010506 82 249 0.0 1.0 0.00 0.00 0.00 82 1013.5
20260905005505 83 249 2.0 2.0 0.00 0.00 0.00 83 1013.6
20260905005006 83 249 1.0 2.0 0.00 0.00 0.00 82 1013.6
20260905004505 83 249 0.0 1.0 0.00 0.00 0.00 82 1013.8
20260905004005 84 249 1.0 3.0 0.00 0.00 0.00 82 1013.9
20260905001005 87 283 1.0 2.0 0.00 0.00 0.00 76 1014.0
20260905000505 87 283 1.0 2.0 0.00 0.00 0.00 76 1014.2
20260904235505 87 275 1.0 2.0 0.00 0.00 0.00 75 1014.2
20260904234505 88 216 1.0 2.0 0.00 0.00 0.00 71 1014.1
20260904234006 88 255 1.0 2.0 0.00 0.00 0.00 71 1014.1
20260904233505 88 245 0.0 2.0 0.00 0.00 0.00 71 1014.0
20260904232506 89 245 0.0 1.0 0.00 0.00 0.00 69 1013.9
20260904230005 90 235 2.0 5.0 0.00 0.00 0.00 66 1013.9
20260904225005 91 253 3.0 7.0 0.00 0.00 0.00 64 1014.0
20260904224505 92 237 3.0 5.0 0.00 0.00 0.00 63 1013.9
20260904224005 92 223 4.0 5.0 0.00 0.00 0.00 62 1013.9
20260904223505 92 212 2.0 8.0 0.00 0.00 0.00 63 1013.5
20260904223006 92 207 5.0 7.0 0.00 0.00 0.00 62 1013.4
20260904222505 92 189 6.0 10.0 0.00 0.00 0.00 60 1013.4
20260904221506 93 190 5.0 12.0 0.00 0.00 0.00 60 1013.1
20260904220005 93 196 9.0 13.0 0.00 0.00 0.00 59 1013.2
20260904215005 94 207 7.0 10.0 0.00 0.00 0.00 59 1013.0
20260904214505 94 190 8.0 12.0 0.00 0.00 0.00 58 1013.0
20260904213005 94 192 9.0 14.0 0.00 0.00 0.00 56 1013.1
20260904212505 94 186 10.0 15.0 0.00 0.00 0.00 56 1013.1
20260904212005 95 199 9.0 13.0 0.00 0.00 0.00 59 1013.0
20260904211505 94 177 9.0 14.0 0.00 0.00 0.00 57 1013.0
20260904211005 95 180 10.0 14.0 0.00 0.00 0.00 57 1012.8
20260904205504 95 191 8.0 15.0 0.00 0.00 0.00 57 1012.8
20260904204005 95 188 9.0 13.0 0.00 0.00 0.00 55 1012.8
20260904203005 95 186 9.0 17.0 0.00 0.00 0.00 56 1012.9
20260904201505 95 174 9.0 14.0 0.00 0.00 0.00 55 1013.2
20260904200505 96 193 6.0 14.0 0.00 0.00 0.00 55 1013.4
20260904200005 95 206 7.0 15.0 0.00 0.00 0.00 54 1013.4
20260904195005 96 183 9.0 15.0 0.00 0.00 0.00 55 1013.4
20260904192005 92 214 6.0 9.0 0.00 0.00 0.00 59 1014.0
20260904191505 92 193 6.0 10.0 0.00 0.00 0.00 61 1014.1
20260904190005 92 198 5.0 8.0 0.00 0.00 0.00 60 1014.2
20260904185005 92 214 5.0 8.0 0.00 0.00 0.00 59 1014.4
20260904183505 92 216 3.0 8.0 0.00 0.00 0.00 61 1014.5
20260904182505 91 213 7.0 10.0 0.00 0.00 0.00 59 1014.6
20260904175505 92 216 7.0 12.0 0.00 0.00 0.00 59 1014.6
20260904174505 92 207 8.0 12.0 0.00 0.00 0.00 57 1014.6
20260904173505 95 186 5.0 10.0 0.00 0.00 0.00 58 1014.6
20260904172505 93 221 6.0 9.0 0.00 0.00 0.00 59 1014.6
20260904172004 92 214 7.0 10.0 0.00 0.00 0.00 59 1014.6
20260904171504 93 241 7.0 12.0 0.00 0.00 0.00 57 1014.6
20260904171005 95 223 6.0 10.0 0.00 0.00 0.00 56 1014.7
20260904170505 95 245 8.0 14.0 0.00 0.00 0.00 57 1014.7
20260904165504 94 223 8.0 15.0 0.00 0.00 0.00 56 1014.9
20260904164504 93 231 7.0 12.0 0.00 0.00 0.00 59 1014.8
20260904162004 94 250 6.0 9.0 0.00 0.00 0.00 59 1015.0
20260904161005 92 246 4.0 12.0 0.00 0.00 0.00 62 1014.9
20260904160504 91 230 6.0 10.0 0.00 0.00 0.00 62 1014.9
20260904160005 91 218 7.0 10.0 0.00 0.00 0.00 62 1014.9
20260904155504 91 244 3.0 8.0 0.00 0.00 0.00 63 1014.9
20260904155005 91 247 3.0 8.0 0.00 0.00 0.00 65 1014.8
20260904152504 90 239 5.0 9.0 0.00 0.00 0.00 65 1015.0
20260904151504 89 273 6.0 12.0 0.00 0.00 0.00 67 1014.9
20260904144005 86 238 5.0 8.0 0.00 0.00 0.00 71 1014.7
20260904142004 84 220 3.0 7.0 0.00 0.00 0.00 77 1014.5
20260904140505 83 232 3.0 5.0 0.00 0.00 0.00 79 1014.5
20260904135004 81 224 2.0 5.0 0.00 0.00 0.00 82 1014.4
20260904134005 80 204 3.0 5.0 0.00 0.00 0.00 83 1014.4
20260904133504 80 222 3.0 3.0 0.00 0.00 0.00 84 1014.4
20260904132005 78 174 1.0 2.0 0.00 0.00 0.00 85 1014.4
20260904131504 77 225 1.0 2.0 0.00 0.00 0.00 86 1014.4
20260904131005 77 253 0.0 2.0 0.00 0.00 0.00 86 1014.4
20260904125506 76 199 2.0 3.0 0.00 0.00 0.00 89 1014.3
20260904123005 74 165 1.0 3.0 0.00 0.00 0.00 91 1014.1
20260904122504 74 209 1.0 2.0 0.00 0.00 0.00 91 1014.0
20260904122004 73 213 2.0 3.0 0.00 0.00 0.00 92 1013.9
20260904121004 73 209 2.0 2.0 0.00 0.00 0.00 93 1013.9
20260904120004 73 209 2.0 2.0 0.00 0.00 0.00 92 1013.9
20260904114504 72 209 2.0 3.0 0.00 0.00 0.00 93 1013.8
20260904112505 72 198 2.0 3.0 0.00 0.00 0.00 94 1013.6
20260904111005 72 181 2.0 2.0 0.00 0.00 0.00 94 1013.4
20260904110504 72 152 2.0 2.0 0.00 0.00 0.00 94 1013.5
20260904105504 72 144 1.0 2.0 0.00 0.00 0.00 94 1013.4
20260904105004 72 144 1.0 2.0 0.00 0.00 0.00 93 1013.4
20260904104005 72 144 1.0 1.0 0.00 0.00 0.00 93 1013.5
20260904103504 73 143 1.0 1.0 0.00 0.00 0.00 93 1013.5
20260904103005 73 144 0.0 1.0 0.00 0.00 0.00 94 1013.6
20260904102504 72 144 0.0 2.0 0.00 0.00 0.00 94 1013.6
20260904102004 72 144 1.0 1.0 0.00 0.00 0.00 93 1013.6
20260904101004 73 144 1.0 2.0 0.00 0.00 0.00 93 1013.6
20260904095504 73 159 2.0 2.0 0.00 0.00 0.00 93 1013.7
20260904095004 73 157 2.0 2.0 0.00 0.00 0.00 93 1013.7
20260904093504 73 159 1.0 2.0 0.00 0.00 0.00 92 1013.6
20260904093004 73 159 1.0 2.0 0.00 0.00 0.00 93 1013.7
20260904092004 73 159 0.0 2.0 0.00 0.00 0.00 93 1013.6
20260904091504 73 159 1.0 1.0 0.00 0.00 0.00 92 1013.6
20260904090004 74 159 1.0 2.0 0.00 0.00 0.00 92 1013.3
20260904085504 74 159 2.0 3.0 0.00 0.00 0.00 92 1013.3
20260904085004 74 182 2.0 2.0 0.00 0.00 0.00 92 1013.2
20260904084503 74 182 1.0 2.0 0.00 0.00 0.00 92 1013.0
20260904084004 74 182 0.0 1.0 0.00 0.00 0.00 92 1013.0
20260904083504 74 182 1.0 3.0 0.00 0.00 0.00 92 1012.9
20260904083004 74 198 1.0 2.0 0.00 0.00 0.00 92 1012.9
20260904082504 74 198 1.0 2.0 0.00 0.00 0.00 91 1012.8
20260904081004 75 186 2.0 3.0 0.00 0.00 0.00 91 1012.8
20260904080503 75 179 2.0 3.0 0.00 0.00 0.00 92 1012.9
20260904080004 75 173 2.0 5.0 0.00 0.00 0.00 92 1012.9
20260904075004 75 170 2.0 3.0 0.00 0.00 0.00 92 1012.9
20260904074504 75 171 2.0 3.0 0.00 0.00 0.00 92 1012.9
20260904074004 75 162 2.0 3.0 0.00 0.00 0.00 91 1013.0
20260904072504 75 166 3.0 3.0 0.00 0.00 0.00 91 1013.1
20260904071004 75 155 2.0 3.0 0.00 0.00 0.00 91 1013.3
20260904070504 75 155 2.0 3.0 0.00 0.00 0.00 91 1013.4
20260904065504 75 155 2.0 3.0 0.00 0.00 0.00 92 1013.5
20260904065004 75 155 2.0 3.0 0.00 0.00 0.00 92 1013.5
20260904063003 76 155 2.0 3.0 0.00 0.00 0.00 91 1013.7